Time,TemperatureF,DewpointF,PressureIn,WindDirection,WindDirectionDegrees,WindSpeedMPH,WindSpeedGustMPH,Humidity,HourlyPrecipIn,Conditions,Clouds,dailyrainin,SoftwareType,DateUTC
2013-03-01 00:01:00,41.3,33.0,29.83,NW,306,5.0,8.0,73,0.00,,,0.00,weatherlink.com 1.10,2013-03-01 05:01:00,
2013-03-01 00:16:00,40.8,33.0,29.83,WNW,301,7.0,8.0,75,0.00,,,0.00,weatherlink.com 1.10,2013-03-01 05:16:00,
2013-03-01 00:31:00,40.9,33.0,29.83,NW,326,5.0,9.0,74,0.00,,,0.00,weatherlink.com 1.10,2013-03-01 05:31:00,
2013-03-01 00:46:00,41.0,33.0,29.84,NW,304,4.0,8.0,73,0.00,,,0.00,weatherlink.com 1.10,2013-03-01 05:46:00,
2013-03-01 01:01:00,40.9,33.0,29.84,North,350,4.0,9.0,73,0.00,,,0.00,weatherlink.com 1.10,2013-03-01 06:01:00,
2013-03-01 01:16:00,40.7,33.0,29.84,NW,317,6.0,7.0,74,0.00,,,0.00,weatherlink.com 1.10,2013-03-01 06:16:00,
2013-03-01 01:31:00,40.4,33.0,29.84,WNW,294,2.0,6.0,74,0.00,,,0.00,weatherlink.com 1.10,2013-03-01 06:31:00,
2013-03-01 01:46:00,39.8,32.0,29.85,NNW,333,4.0,7.0,75,0.00,,,0.00,weatherlink.com 1.10,2013-03-01 06:46:00,
2013-03-01 02:01:00,39.8,32.0,29.84,NNW,342,4.0,7.0,75,0.00,,,0.00,weatherlink.com 1.10,2013-03-01 07:01:00,
2013-03-01 02:16:00,39.8,32.0,29.84,NNW,335,3.0,8.0,75,0.00,,,0.00,weatherlink.com 1.10,2013-03-01 07:16:00,
2013-03-01 02:31:00,39.5,32.0,29.84,West,270,3.0,7.0,75,0.00,,,0.00,weatherlink.com 1.10,2013-03-01 07:31:00,
2013-03-01 02:47:00,39.1,32.0,29.84,NNW,327,2.0,6.0,76,0.00,,,0.00,weatherlink.com 1.10,2013-03-01 07:47:00,
2013-03-01 03:01:00,38.8,32.0,29.84,WNW,288,2.0,6.0,77,0.00,,,0.00,weatherlink.com 1.10,2013-03-01 08:01:00,
2013-03-01 03:17:00,38.5,32.0,29.84,NNW,335,6.0,7.0,78,0.00,,,0.00,weatherlink.com 1.10,2013-03-01 08:17:00,
2013-03-01 03:32:00,38.1,32.0,29.84,WNW,296,3.0,6.0,78,0.00,,,0.00,weatherlink.com 1.10,2013-03-01 08:32:00,
2013-03-01 03:47:00,37.5,32.0,29.83,NW,304,3.0,6.0,79,0.00,,,0.00,weatherlink.com 1.10,2013-03-01 08:47:00,
2013-03-01 04:02:00,37.3,32.0,29.83,NNW,332,3.0,4.0,80,0.00,,,0.00,weatherlink.com 1.10,2013-03-01 09:02:00,
2013-03-01 04:17:00,37.2,32.0,29.83,NNW,340,2.0,6.0,80,0.00,,,0.00,weatherlink.com 1.10,2013-03-01 09:17:00,
2013-03-01 04:32:00,36.8,32.0,29.84,WNW,298,3.0,6.0,81,0.00,,,0.00,weatherlink.com 1.10,2013-03-01 09:32:00,
2013-03-01 04:47:00,36.3,31.0,29.85,WNW,296,4.0,6.0,81,0.00,,,0.00,weatherlink.com 1.10,2013-03-01 09:47:00,
2013-03-01 05:02:00,35.9,31.0,29.85,NW,304,4.0,6.0,82,0.00,,,0.00,weatherlink.com 1.10,2013-03-01 10:02:00,
2013-03-01 05:17:00,35.7,31.0,29.86,WNW,297,4.0,6.0,83,0.00,,,0.00,weatherlink.com 1.10,2013-03-01 10:17:00,
2013-03-01 05:32:00,35.6,31.0,29.86,NW,313,4.0,6.0,83,0.00,,,0.00,weatherlink.com 1.10,2013-03-01 10:32:00,
2013-03-01 05:47:00,35.7,31.0,29.86,NNW,348,5.0,7.0,83,0.00,,,0.00,weatherlink.com 1.10,2013-03-01 10:47:00,
2013-03-01 06:02:00,35.9,31.0,29.86,NW,325,4.0,8.0,83,0.00,,,0.00,weatherlink.com 1.10,2013-03-01 11:02:00,
2013-03-01 06:17:00,36.2,31.0,29.86,NNW,335,5.0,8.0,82,0.00,,,0.00,weatherlink.com 1.10,2013-03-01 11:17:00,
2013-03-01 06:32:00,36.2,31.0,29.86,North,9,3.0,7.0,82,0.00,,,0.00,weatherlink.com 1.10,2013-03-01 11:32:00,
2013-03-01 06:47:00,36.2,31.0,29.86,NNW,336,4.0,11.0,82,0.00,,,0.00,weatherlink.com 1.10,2013-03-01 11:47:00,
2013-03-01 07:02:00,36.5,32.0,29.86,North,355,3.0,12.0,82,0.00,,,0.00,weatherlink.com 1.10,2013-03-01 12:02:00,
2013-03-01 07:17:00,37.1,32.0,29.86,NNW,343,8.0,9.0,81,0.00,,,0.00,weatherlink.com 1.10,2013-03-01 12:17:00,
2013-03-01 07:32:00,37.5,32.0,29.88,WNW,282,4.0,11.0,80,0.00,,,0.00,weatherlink.com 1.10,2013-03-01 12:32:00,
2013-03-01 07:47:00,38.0,32.0,29.88,NNW,339,7.0,12.0,79,0.00,,,0.00,weatherlink.com 1.10,2013-03-01 12:47:00,
2013-03-01 08:02:00,38.8,33.0,29.88,NNW,345,3.0,11.0,79,0.00,,,0.00,weatherlink.com 1.10,2013-03-01 13:02:00,
2013-03-01 08:17:00,39.2,32.0,29.88,NNW,342,10.0,14.0,76,0.00,,,0.00,weatherlink.com 1.10,2013-03-01 13:17:00,
2013-03-01 08:32:00,40.6,33.0,29.87,NW,304,6.0,11.0,75,0.00,,,0.00,weatherlink.com 1.10,2013-03-01 13:32:00,
2013-03-01 08:47:00,42.3,34.0,29.87,NNE,15,3.0,12.0,72,0.00,,,0.00,weatherlink.com 1.10,2013-03-01 13:47:00,
2013-03-01 09:02:00,42.9,34.0,29.87,NW,321,7.0,12.0,72,0.00,,,0.00,weatherlink.com 1.10,2013-03-01 14:02:00,
2013-03-01 09:17:00,43.4,35.0,29.87,NW,325,4.0,12.0,71,0.00,,,0.00,weatherlink.com 1.10,2013-03-01 14:17:00,
2013-03-01 09:32:00,44.6,35.0,29.86,NNE,22,3.0,12.0,70,0.00,,,0.00,weatherlink.com 1.10,2013-03-01 14:32:00,
2013-03-01 09:47:00,45.8,35.0,29.85,North,5,5.0,10.0,66,0.00,,,0.00,weatherlink.com 1.10,2013-03-01 14:47:00,
2013-03-01 10:02:00,46.8,35.0,29.86,NNE,15,6.0,12.0,63,0.00,,,0.00,weatherlink.com 1.10,2013-03-01 15:02:00,
2013-03-01 10:17:00,47.0,34.0,29.86,NNE,26,5.0,12.0,62,0.00,,,0.00,weatherlink.com 1.10,2013-03-01 15:17:00,
2013-03-01 10:32:00,47.8,34.0,29.86,NE,35,5.0,11.0,60,0.00,,,0.00,weatherlink.com 1.10,2013-03-01 15:32:00,
2013-03-01 10:48:00,49.1,34.0,29.86,NNW,346,3.0,9.0,56,0.00,,,0.00,weatherlink.com 1.10,2013-03-01 15:48:00,
2013-03-01 11:04:00,49.2,33.0,29.87,NNW,343,3.0,7.0,54,0.00,,,0.00,weatherlink.com 1.10,2013-03-01 16:04:00,
2013-03-01 11:18:00,50.2,33.0,29.87,NE,39,4.0,6.0,53,0.00,,,0.00,weatherlink.com 1.10,2013-03-01 16:18:00,
2013-03-01 11:33:00,50.6,32.0,29.86,NNW,329,5.0,9.0,50,0.00,,,0.00,weatherlink.com 1.10,2013-03-01 16:33:00,
2013-03-01 11:48:00,50.6,32.0,29.86,East,82,3.0,11.0,49,0.00,,,0.00,weatherlink.com 1.10,2013-03-01 16:48:00,
2013-03-01 12:03:00,50.8,32.0,29.86,NNW,333,0.0,9.0,48,0.00,,,0.00,weatherlink.com 1.10,2013-03-01 17:03:00,
2013-03-01 12:18:00,49.1,33.0,29.85,WSW,257,9.0,11.0,55,0.00,,,0.00,weatherlink.com 1.10,2013-03-01 17:18:00,
2013-03-01 12:33:00,48.5,34.0,29.85,South,188,6.0,11.0,58,0.00,,,0.00,weatherlink.com 1.10,2013-03-01 17:33:00,
2013-03-01 12:48:00,48.3,34.0,29.84,SSW,195,6.0,11.0,58,0.00,,,0.00,weatherlink.com 1.10,2013-03-01 17:48:00,
2013-03-01 13:03:00,48.4,34.0,29.83,SW,229,8.0,10.0,58,0.00,,,0.00,weatherlink.com 1.10,2013-03-01 18:03:00,
2013-03-01 13:18:00,48.5,34.0,29.82,SW,220,8.0,14.0,58,0.00,,,0.00,weatherlink.com 1.10,2013-03-01 18:18:00,
2013-03-01 13:33:00,49.0,35.0,29.82,SW,221,6.0,11.0,59,0.00,,,0.00,weatherlink.com 1.10,2013-03-01 18:33:00,
2013-03-01 13:48:00,48.7,35.0,29.81,SSW,194,7.0,11.0,59,0.00,,,0.00,weatherlink.com 1.10,2013-03-01 18:48:00,
2013-03-01 14:03:00,49.1,36.0,29.82,SSW,211,11.0,13.0,60,0.00,,,0.00,weatherlink.com 1.10,2013-03-01 19:03:00,
2013-03-01 14:18:00,49.1,36.0,29.81,SSW,203,10.0,14.0,61,0.00,,,0.00,weatherlink.com 1.10,2013-03-01 19:18:00,
2013-03-01 14:33:00,48.7,37.0,29.81,SSW,211,5.0,15.0,64,0.00,,,0.00,weatherlink.com 1.10,2013-03-01 19:33:00,
2013-03-01 14:48:00,48.7,37.0,29.80,South,190,7.0,13.0,65,0.00,,,0.00,weatherlink.com 1.10,2013-03-01 19:48:00,
2013-03-01 15:03:00,49.6,37.0,29.80,SSW,199,5.0,13.0,63,0.00,,,0.00,weatherlink.com 1.10,2013-03-01 20:03:00,
2013-03-01 15:18:00,49.3,39.0,29.80,SSW,206,4.0,15.0,67,0.00,,,0.00,weatherlink.com 1.10,2013-03-01 20:18:00,
2013-03-01 15:33:00,49.4,39.0,29.80,SSE,168,8.0,15.0,67,0.00,,,0.00,weatherlink.com 1.10,2013-03-01 20:33:00,
2013-03-01 15:48:00,49.9,39.0,29.80,WSW,238,3.0,13.0,67,0.00,,,0.00,weatherlink.com 1.10,2013-03-01 20:48:00,
2013-03-01 16:03:00,51.0,39.0,29.80,SSW,211,4.0,10.0,64,0.00,,,0.00,weatherlink.com 1.10,2013-03-01 21:03:00,
2013-03-01 16:18:00,52.1,34.0,29.80,NNW,336,6.0,9.0,51,0.00,,,0.00,weatherlink.com 1.10,2013-03-01 21:18:00,
2013-03-01 16:33:00,52.4,34.0,29.81,NW,304,3.0,6.0,50,0.00,,,0.00,weatherlink.com 1.10,2013-03-01 21:33:00,
2013-03-01 16:48:00,51.9,35.0,29.81,West,269,2.0,9.0,52,0.00,,,0.00,weatherlink.com 1.10,2013-03-01 21:48:00,
2013-03-01 17:03:00,50.4,39.0,29.81,WSW,243,4.0,7.0,66,0.00,,,0.00,weatherlink.com 1.10,2013-03-01 22:03:00,
2013-03-01 17:18:00,50.3,39.0,29.82,WSW,255,5.0,9.0,65,0.00,,,0.00,weatherlink.com 1.10,2013-03-01 22:18:00,
2013-03-01 17:33:00,50.2,37.0,29.82,NW,319,4.0,7.0,62,0.00,,,0.00,weatherlink.com 1.10,2013-03-01 22:33:00,
2013-03-01 17:48:00,50.4,34.0,29.83,NNW,348,3.0,9.0,54,0.00,,,0.00,weatherlink.com 1.10,2013-03-01 22:48:00,
2013-03-01 18:03:00,50.5,36.0,29.83,NW,323,5.0,11.0,57,0.00,,,0.00,weatherlink.com 1.10,2013-03-01 23:03:00,
2013-03-01 18:18:00,50.2,35.0,29.84,North,10,2.0,9.0,56,0.00,,,0.00,weatherlink.com 1.10,2013-03-01 23:18:00,
2013-03-01 18:33:00,49.9,35.0,29.85,North,5,1.0,7.0,58,0.00,,,0.00,weatherlink.com 1.10,2013-03-01 23:33:00,
2013-03-01 18:48:00,49.8,35.0,29.85,NNW,334,3.0,8.0,57,0.00,,,0.00,weatherlink.com 1.10,2013-03-01 23:48:00,
2013-03-01 19:03:00,49.5,35.0,29.86,NNW,346,4.0,6.0,58,0.00,,,0.00,weatherlink.com 1.10,2013-03-02 00:03:00,
2013-03-01 19:18:00,49.2,35.0,29.86,NNW,348,5.0,7.0,59,0.00,,,0.00,weatherlink.com 1.10,2013-03-02 00:18:00,
2013-03-01 19:33:00,48.8,35.0,29.87,NNW,340,8.0,8.0,60,0.00,,,0.00,weatherlink.com 1.10,2013-03-02 00:33:00,
2013-03-01 19:48:00,48.5,35.0,29.87,WNW,303,7.0,10.0,60,0.00,,,0.00,weatherlink.com 1.10,2013-03-02 00:48:00,
2013-03-01 20:03:00,48.1,35.0,29.87,North,355,7.0,9.0,61,0.00,,,0.00,weatherlink.com 1.10,2013-03-02 01:03:00,
2013-03-01 20:18:00,47.8,35.0,29.88,NNW,336,9.0,11.0,62,0.00,,,0.00,weatherlink.com 1.10,2013-03-02 01:18:00,
2013-03-01 20:33:00,47.4,35.0,29.88,North,5,7.0,11.0,62,0.00,,,0.00,weatherlink.com 1.10,2013-03-02 01:33:00,
2013-03-01 20:48:00,47.1,35.0,29.88,North,355,4.0,8.0,64,0.00,,,0.00,weatherlink.com 1.10,2013-03-02 01:48:00,
2013-03-01 21:03:00,46.8,35.0,29.88,NNW,346,3.0,10.0,64,0.00,,,0.00,weatherlink.com 1.10,2013-03-02 02:03:00,
2013-03-01 21:18:00,46.6,35.0,29.89,NNW,347,5.0,7.0,65,0.00,,,0.00,weatherlink.com 1.10,2013-03-02 02:18:00,
2013-03-01 21:33:00,46.1,35.0,29.89,North,360,3.0,7.0,66,0.00,,,0.00,weatherlink.com 1.10,2013-03-02 02:33:00,
2013-03-01 21:48:00,46.0,35.0,29.89,NNW,330,2.0,6.0,66,0.00,,,0.00,weatherlink.com 1.10,2013-03-02 02:48:00,
2013-03-01 22:03:00,45.8,35.0,29.89,NNW,347,3.0,6.0,66,0.00,,,0.00,weatherlink.com 1.10,2013-03-02 03:03:00,
2013-03-01 22:18:00,45.4,35.0,29.90,North,355,5.0,5.0,67,0.00,,,0.00,weatherlink.com 1.10,2013-03-02 03:18:00,
2013-03-01 22:33:00,45.2,35.0,29.89,North,349,3.0,6.0,68,0.00,,,0.00,weatherlink.com 1.10,2013-03-02 03:33:00,
2013-03-01 22:48:00,45.0,35.0,29.89,NNW,342,3.0,5.0,69,0.00,,,0.00,weatherlink.com 1.10,2013-03-02 03:48:00,
2013-03-01 23:04:00,43.8,35.0,29.89,NNW,344,2.0,4.0,70,0.00,,,0.00,weatherlink.com 1.10,2013-03-02 04:04:00,
2013-03-01 23:18:00,43.6,35.0,29.89,North,355,2.0,4.0,72,0.00,,,0.00,weatherlink.com 1.10,2013-03-02 04:18:00,
2013-03-01 23:33:00,43.0,35.0,29.89,North,355,1.0,3.0,72,0.00,,,0.00,weatherlink.com 1.10,2013-03-02 04:33:00,
2013-03-01 23:48:00,41.9,34.0,29.89,North,355,1.0,2.0,73,0.00,,,0.00,weatherlink.com 1.10,2013-03-02 04:48:00,